User: anonymous   Login
Location: Carbonear
(47.7333°N, 53.2500°W)
Time: 18:04:45
(UTC+00:00)
Language:

KAITUO 1B - Orbit

View from above orbital plane
View from above orbital plane
View from above satellite
View from above satellite

Ground track
Ground track

The orbit data is extracted from the following two-line orbital elements,

1 40912U 15049P   22334.10128581  .00012810  00000-0  44051-3 0  9994
2 40912  97.4323 345.0907 0013891  76.6514 354.4429 15.30126673399045
Epoch (UTC): 30 November 2022 02:25:51
Eccentricity: 0.0013891
inclination: 97.4323°
perigee height: 466 km
apogee height: 485 km
right ascension of ascending node: 345.0907°
argument of perigee: 76.6514°
revolutions per day: 15.30126673
mean anomaly at epoch: 354.4429°
orbit number at epoch: 39904

The dashed part of the orbit path shows where the satellite is in the earth's shadow,  

DLR